IUS R/B(2)

基本信息
目录编号:
20932
目录名称:
IUS R/B(2)
国际标识:
1990-095D
轨道中心:
EARTH
物体状态:
在轨
发射日期:
1990-11-13 UTC
国别:
美国 (US)
轨道信息
数据来源: 国际轨道数据
星历时间: 2026-07-13T04:46:23+0800
半长轴: 42452.918km
偏心率: 0.0006244
轨道倾角: 13.831°
近地点辐角: 40.719°
升交点赤经: 341.970°
平近点角: 319.360°
近地点: 36048.273km
远地点: 36101.289km
周期: 1450.845分钟
每日圈数: 0.992525
详细信息
发射场:
AFETR
轨道高度:
HEO
数据来源:
AOE Integration Group
参考系:
TEME
时间系统:
UTC
历元类型:
SGP4
2D轨道图
3D轨道图
轨道高度分析图
轨道倾角分析图
轨道综合分析图
查看轨道综合分析图